Weather History for Hill City, KS

Change the Weather History Date:

Saturday, September 10, 2011

  Actual Average Record
Temperature  
Mean Temperature 70 °F 70 °F  
Max Temperature 86 °F 84 °F 101 °F (1938)
Min Temperature 53 °F 56 °F 35 °F (1959)
Cooling Degree Days 4    
Growing Degree Days 18 (Base 50)    
Moisture  
Dew Point 50 °F    
Average Humidity 55    
Maximum Humidity 80    
Minimum Humidity 30    
Precipitation  
Precipitation 0.00 in 0.05 in 0.91 in (2003)
Month to date precipitation 0.25 0.73  
Year to date precipitation 16.33 18.61  
Sea Level Pressure  
Sea Level Pressure 30.09 in    
Wind  
Wind Speed 7 mph (NNW)    
Max Wind Speed 20 mph    
Max Gust Speed 24 mph    
Visibility 10 miles    
Events      
T = Trace of Precipitation, MM = Missing Value Source: NWS Daily Summary

Daily Weather History Graph

Daily Weather History Graph

Search for Another Location

Airport:

Trip Planner

Search our weather history database for the weather conditions in past years. The results will help you decide how hot, cold, wet, or windy it might be!

Date:

Astronomy

Sep. 10, 2011 Rise Set
Actual Time 7:15 AM CDT 7:56 PM CDT
Civil Twilight 6:48 AM CDT 8:23 PM CDT
Nautical Twilight 6:16 AM CDT 8:55 PM CDT
Astronomical Twilight 5:43 AM CDT 9:28 PM CDT
Moon 6:51 PM CDT (9/10) 5:37 AM CDT (9/10)
Length of Visible Light 13h 34m
Length of Day
12h 40m
Waxing Gibbous, 97% of the Moon is Illuminated
Sep 10
Waxing Gibbous
Sep 12
Full
Sep 20
Last Quarter
Sep 27
New
Oct 3
First Quarter

Hourly Weather History & Observations

Time (CDT) Temp. Dew Point Humidity Pressure Visibility Wind Dir Wind Speed Gust Speed Precip Events Conditions
12:53 AM 55.0 °F 46.9 °F 74% 30.11 in 10.0 mi Calm Calm - N/A   Clear
1:53 AM 53.1 °F 46.9 °F 80% 30.11 in 10.0 mi West 3.5 mph - N/A   Clear
3:53 AM 54.0 °F 48.0 °F 80% 30.09 in 10.0 mi West 5.8 mph - N/A   Scattered Clouds
4:53 AM 55.9 °F 48.9 °F 77% 30.09 in 10.0 mi West 6.9 mph - N/A   Mostly Cloudy
5:53 AM 55.9 °F 48.9 °F 77% 30.09 in 10.0 mi West 4.6 mph - N/A   Partly Cloudy
6:53 AM 55.9 °F 48.0 °F 75% 30.10 in 10.0 mi West 5.8 mph - N/A   Clear
7:53 AM 55.0 °F 48.9 °F 80% 30.13 in 10.0 mi WSW 4.6 mph - N/A   Clear
8:53 AM 64.0 °F 51.1 °F 63% 30.14 in 10.0 mi NNW 11.5 mph - N/A   Clear
9:53 AM 71.1 °F 52.0 °F 51% 30.13 in 10.0 mi NNW 17.3 mph 24.2 mph N/A   Clear
10:53 AM 75.0 °F 52.0 °F 44% 30.13 in 10.0 mi North 17.3 mph - N/A   Clear
11:53 AM 79.0 °F 53.1 °F 40% 30.12 in 10.0 mi North 12.7 mph - N/A   Clear
12:53 PM 81.0 °F 52.0 °F 36% 30.11 in 10.0 mi North 19.6 mph 24.2 mph N/A   Partly Cloudy
1:53 PM 84.9 °F 51.1 °F 31% 30.09 in 10.0 mi NNE 15.0 mph - N/A   Scattered Clouds
3:53 PM 84.9 °F 50.0 °F 30% 30.05 in 10.0 mi North 16.1 mph 19.6 mph N/A   Partly Cloudy
4:53 PM 84.0 °F 51.1 °F 32% 30.04 in 10.0 mi North 15.0 mph 19.6 mph N/A   Partly Cloudy
5:53 PM 82.9 °F 50.0 °F 32% 30.04 in 10.0 mi NNE 13.8 mph - N/A   Scattered Clouds
6:53 PM 81.0 °F 52.0 °F 36% 30.04 in 10.0 mi NE 12.7 mph - N/A   Clear
7:53 PM 75.9 °F 53.1 °F 45% 30.05 in 10.0 mi NE 6.9 mph - N/A   Clear
8:53 PM 69.1 °F 53.1 °F 57% 30.07 in 10.0 mi ENE 4.6 mph - N/A   Clear
9:53 PM 64.9 °F 51.1 °F 61% 30.09 in 10.0 mi NE 3.5 mph - N/A   Clear
10:53 PM 61.0 °F 48.9 °F 64% 30.10 in 10.0 mi Calm Calm - N/A   Clear